| time (UTC) | temp F | wind direction | speed MPH | gust MPH | rain 1hr in | rain 24hr in | rain mn in | humidity % | barometer mb |
| 20260902170004 | 72 | 160 | 3.0 | 10.0 | 0.00 | 1.57 | 1.57 | 99 | 1015.7 |
| 20260902165004 | 71 | 180 | 2.0 | 10.0 | 0.00 | 1.57 | 1.57 | 100 | 1015.6 |
| 20260902164003 | 71 | 153 | 3.0 | 8.0 | 0.00 | 1.57 | 1.57 | 100 | 1015.7 |
| 20260902163212 | 70 | 151 | 3.0 | 8.0 | 0.00 | 1.57 | 1.57 | 100 | 1015.5 |
| 20260902162004 | 69 | 137 | 2.0 | 6.0 | 0.00 | 1.57 | 1.57 | 100 | 1015.9 |
| 20260902161004 | 68 | 140 | 2.0 | 6.0 | 0.01 | 1.57 | 1.57 | 100 | 1016.0 |
| 20260902160004 | 67 | 132 | 3.0 | 6.0 | 0.06 | 1.57 | 1.57 | 100 | 1016.4 |
| 20260902155004 | 67 | 142 | 2.0 | 6.0 | 0.38 | 1.57 | 1.57 | 100 | 1016.5 |
| 20260902154214 | 67 | 144 | 3.0 | 8.0 | 0.89 | 1.57 | 1.57 | 100 | 1016.7 |
| 20260902153003 | 67 | 141 | 4.0 | 9.0 | 0.97 | 1.57 | 1.57 | 100 | 1017.2 |
| 20260902152003 | 67 | 140 | 3.0 | 7.0 | 0.99 | 1.57 | 1.57 | 100 | 1018.0 |
| 20260902151004 | 68 | 141 | 2.0 | 6.0 | 1.00 | 1.56 | 1.56 | 100 | 1018.8 |
| 20260902150005 | 67 | 135 | 1.0 | 6.0 | 1.12 | 1.51 | 1.51 | 100 | 1019.2 |
| 20260902145005 | 68 | 313 | 3.0 | 13.0 | 1.00 | 1.19 | 1.19 | 100 | 1019.3 |
| 20260902144004 | 69 | 313 | 2.0 | 8.0 | 0.64 | 0.66 | 0.66 | 100 | 1019.2 |
| 20260902143006 | 68 | 140 | 1.0 | 4.0 | 0.59 | 0.60 | 0.60 | 100 | 1017.3 |
| 20260902142004 | 68 | 135 | 2.0 | 4.0 | 0.58 | 0.58 | 0.58 | 100 | 1017.3 |
| 20260902141004 | 68 | 0 | 0.0 | 1.0 | 0.56 | 0.56 | 0.56 | 100 | 1018.1 |
| 20260902140004 | 68 | 186 | 1.0 | 4.0 | 0.39 | 0.39 | 0.39 | 100 | 1017.3 |
| 20260902135004 | 68 | 267 | 0.0 | 6.0 | 0.17 | 0.17 | 0.17 | 100 | 1017.4 |
| 20260902134004 | 68 | 269 | 1.0 | 6.0 | 0.02 | 0.02 | 0.02 | 100 | 1017.5 |
| 20260902133004 | 68 | 0 | 0.0 | 0.0 | 0.01 | 0.01 | 0.01 | 100 | 1017.2 |
| 20260902132004 | 68 | 0 | 0.0 | 1.0 | 0.00 | 0.00 | 0.00 | 100 | 1017.3 |
| 20260902131213 | 68 | 0 | 0.0 | 2.0 | 0.00 | 0.00 | 0.00 | 100 | 1017.3 |
| 20260902130005 | 68 | 0 | 0.0 | 0.0 | 0.00 | 0.00 | 0.00 | 100 | 1017.0 |
| 20260902125215 | 67 | 0 | 0.0 | 0.0 | 0.00 | 0.00 | 0.00 | 100 | 1017.0 |
| 20260902124005 | 67 | 360 | 0.0 | 2.0 | 0.00 | 0.00 | 0.00 | 100 | 1016.7 |
| 20260902123004 | 67 | 0 | 0.0 | 0.0 | 0.00 | 0.00 | 0.00 | 100 | 1016.7 |
| 20260902122005 | 67 | 19 | 0.0 | 2.0 | 0.00 | 0.00 | 0.00 | 100 | 1016.9 |
| 20260902121003 | 67 | 0 | 0.0 | 0.0 | 0.00 | 0.00 | 0.00 | 100 | 1016.6 |
| 20260902120004 | 67 | 0 | 0.0 | 0.0 | 0.00 | 0.00 | 0.00 | 100 | 1016.1 |
| 20260902115004 | 67 | 0 | 0.0 | 0.0 | 0.00 | 0.00 | 0.00 | 100 | 1015.9 |
| 20260902114005 | 66 | 0 | 0.0 | 0.0 | 0.00 | 0.00 | 0.00 | 100 | 1016.0 |
| 20260902113004 | 66 | 0 | 0.0 | 0.0 | 0.00 | 0.00 | 0.00 | 100 | 1016.2 |
| 20260902112003 | 66 | 0 | 0.0 | 0.0 | 0.00 | 0.00 | 0.00 | 100 | 1016.0 |
| 20260902111003 | 66 | 0 | 0.0 | 0.0 | 0.00 | 0.00 | 0.00 | 100 | 1016.0 |
| 20260902110005 | 66 | 0 | 0.0 | 0.0 | 0.00 | 0.00 | 0.00 | 100 | 1016.0 |
| 20260902105004 | 66 | 0 | 0.0 | 0.0 | 0.00 | 0.00 | 0.00 | 100 | 1015.9 |
| 20260902104004 | 66 | 0 | 0.0 | 0.0 | 0.00 | 0.00 | 0.00 | 100 | 1015.8 |
| 20260902103003 | 66 | 0 | 0.0 | 0.0 | 0.00 | 0.00 | 0.00 | 100 | 1016.0 |
| 20260902102003 | 66 | 0 | 0.0 | 0.0 | 0.00 | 0.00 | 0.00 | 100 | 1016.4 |
| 20260902101004 | 66 | 0 | 0.0 | 0.0 | 0.00 | 0.00 | 0.00 | 100 | 1016.4 |
| 20260902100003 | 66 | 0 | 0.0 | 0.0 | 0.00 | 0.00 | 0.00 | 100 | 1016.4 |
| 20260902095003 | 67 | 0 | 0.0 | 0.0 | 0.00 | 0.00 | 0.00 | 100 | 1016.7 |
| 20260902094003 | 67 | 0 | 0.0 | 0.0 | 0.00 | 0.00 | 0.00 | 100 | 1016.7 |
| 20260902093004 | 67 | 0 | 0.0 | 0.0 | 0.00 | 0.02 | 0.00 | 100 | 1016.7 |
| 20260902092003 | 67 | 0 | 0.0 | 0.0 | 0.00 | 0.05 | 0.00 | 100 | 1016.5 |
| 20260902091008 | 67 | 0 | 0.0 | 2.0 | 0.00 | 0.05 | 0.00 | 100 | 1016.5 |
| 20260902090004 | 67 | 0 | 0.0 | 0.0 | 0.00 | 0.05 | 0.00 | 100 | 1016.7 |
| 20260902085004 | 67 | 0 | 0.0 | 0.0 | 0.00 | 0.05 | 0.00 | 100 | 1016.8 |
| 20260902084003 | 67 | 0 | 0.0 | 0.0 | 0.00 | 0.05 | 0.00 | 100 | 1016.9 |
| 20260902083003 | 67 | 0 | 0.0 | 0.0 | 0.00 | 0.05 | 0.00 | 100 | 1016.9 |
| 20260902082003 | 67 | 0 | 0.0 | 0.0 | 0.00 | 0.05 | 0.00 | 100 | 1016.9 |
| 20260902081004 | 67 | 0 | 0.0 | 0.0 | 0.00 | 0.05 | 0.00 | 100 | 1016.7 |
| 20260902080005 | 67 | 0 | 0.0 | 0.0 | 0.00 | 0.05 | 0.00 | 100 | 1016.8 |
| 20260902075213 | 67 | 0 | 0.0 | 0.0 | 0.00 | 0.05 | 0.00 | 100 | 1016.8 |
| 20260902074006 | 67 | 0 | 0.0 | 0.0 | 0.00 | 0.05 | 0.00 | 100 | 1016.7 |
| 20260902073004 | 67 | 0 | 0.0 | 0.0 | 0.00 | 0.05 | 0.00 | 100 | 1016.7 |
| 20260902072004 | 67 | 0 | 0.0 | 0.0 | 0.00 | 0.05 | 0.00 | 100 | 1016.6 |
| 20260902071215 | 67 | 0 | 0.0 | 0.0 | 0.00 | 0.05 | 0.00 | 100 | 1016.6 |
| 20260902070006 | 67 | 0 | 0.0 | 0.0 | 0.00 | 0.07 | 0.00 | 100 | 1016.6 |
| 20260902065004 | 67 | 0 | 0.0 | 0.0 | 0.00 | 0.07 | 0.00 | 100 | 1016.7 |
| 20260902064215 | 67 | 0 | 0.0 | 0.0 | 0.00 | 0.07 | 0.00 | 100 | 1016.5 |
| 20260902063215 | 67 | 0 | 0.0 | 0.0 | 0.00 | 0.07 | 0.00 | 100 | 1016.7 |
| 20260902062215 | 67 | 0 | 0.0 | 0.0 | 0.00 | 0.07 | 0.00 | 100 | 1016.8 |
| 20260902061004 | 67 | 0 | 0.0 | 0.0 | 0.00 | 0.07 | 0.00 | 100 | 1016.6 |
| 20260902060007 | 67 | 0 | 0.0 | 0.0 | 0.00 | 0.07 | 0.00 | 100 | 1016.7 |
| 20260902055006 | 67 | 0 | 0.0 | 0.0 | 0.00 | 0.07 | 0.00 | 100 | 1016.8 |
| 20260902054003 | 67 | 0 | 0.0 | 0.0 | 0.00 | 0.07 | 0.00 | 99 | 1016.7 |
| 20260902053006 | 67 | 0 | 0.0 | 0.0 | 0.00 | 0.07 | 0.00 | 100 | 1016.7 |
| 20260902052004 | 67 | 0 | 0.0 | 0.0 | 0.00 | 0.07 | 0.00 | 99 | 1016.5 |
| 20260902051004 | 67 | 0 | 0.0 | 0.0 | 0.00 | 0.07 | 0.00 | 99 | 1016.6 |
| 20260902050214 | 68 | 0 | 0.0 | 0.0 | 0.00 | 0.07 | 0.00 | 99 | 1016.4 |
| 20260902045004 | 68 | 0 | 0.0 | 0.0 | 0.00 | 0.07 | 0.00 | 99 | 1016.6 |
| 20260902044003 | 68 | 0 | 0.0 | 0.0 | 0.00 | 0.07 | 0.00 | 99 | 1016.4 |
| 20260902043005 | 68 | 0 | 0.0 | 0.0 | 0.00 | 0.07 | 0.00 | 98 | 1016.5 |
| 20260902042005 | 68 | 0 | 0.0 | 0.0 | 0.00 | 0.07 | 0.00 | 98 | 1016.4 |
| 20260902041214 | 68 | 0 | 0.0 | 0.0 | 0.00 | 0.07 | 0.00 | 98 | 1016.3 |
| 20260902040007 | 68 | 0 | 0.0 | 0.0 | 0.00 | 0.07 | 0.00 | 98 | 1016.3 |
| 20260902035214 | 69 | 0 | 0.0 | 0.0 | 0.00 | 0.07 | 0.07 | 98 | 1016.1 |
| 20260902034214 | 69 | 0 | 0.0 | 0.0 | 0.00 | 0.07 | 0.07 | 98 | 1016.3 |
| 20260902033216 | 69 | 180 | 0.0 | 2.0 | 0.00 | 0.07 | 0.07 | 97 | 1016.2 |
| 20260902032004 | 69 | 0 | 0.0 | 0.0 | 0.00 | 0.07 | 0.07 | 97 | 1016.3 |
| 20260902031213 | 69 | 0 | 0.0 | 0.0 | 0.00 | 0.07 | 0.07 | 97 | 1016.5 |
| 20260902030004 | 70 | 0 | 0.0 | 0.0 | 0.00 | 0.07 | 0.07 | 96 | 1016.3 |
| 20260902025004 | 70 | 0 | 0.0 | 0.0 | 0.00 | 0.07 | 0.07 | 96 | 1016.1 |
| 20260902024004 | 70 | 0 | 0.0 | 0.0 | 0.00 | 0.07 | 0.07 | 96 | 1016.3 |
| 20260902023003 | 70 | 0 | 0.0 | 0.0 | 0.00 | 0.07 | 0.07 | 96 | 1016.3 |
| 20260902022005 | 71 | 0 | 0.0 | 0.0 | 0.00 | 0.07 | 0.07 | 96 | 1016.3 |
| 20260902021003 | 71 | 0 | 0.0 | 0.0 | 0.00 | 0.07 | 0.07 | 96 | 1016.3 |
| 20260902020003 | 71 | 0 | 0.0 | 0.0 | 0.00 | 0.07 | 0.07 | 96 | 1016.4 |
| 20260902015213 | 71 | 0 | 0.0 | 0.0 | 0.00 | 0.07 | 0.07 | 96 | 1016.4 |
| 20260902014004 | 71 | 0 | 0.0 | 0.0 | 0.00 | 0.08 | 0.07 | 95 | 1016.4 |
| 20260902013004 | 71 | 0 | 0.0 | 0.0 | 0.00 | 0.08 | 0.07 | 95 | 1016.3 |
| 20260902012003 | 71 | 0 | 0.0 | 0.0 | 0.00 | 0.08 | 0.07 | 95 | 1016.0 |
| 20260902011215 | 72 | 0 | 0.0 | 0.0 | 0.00 | 0.08 | 0.07 | 94 | 1016.1 |
| 20260902010215 | 72 | 0 | 0.0 | 0.0 | 0.00 | 0.08 | 0.07 | 94 | 1015.9 |
| 20260902005003 | 72 | 0 | 0.0 | 0.0 | 0.00 | 0.08 | 0.07 | 93 | 1015.8 |
| 20260902004004 | 72 | 0 | 0.0 | 0.0 | 0.00 | 0.08 | 0.07 | 93 | 1015.6 |
| 20260902003005 | 73 | 0 | 0.0 | 0.0 | 0.00 | 0.08 | 0.07 | 92 | 1015.3 |
| 20260902002214 | 73 | 0 | 0.0 | 0.0 | 0.00 | 0.08 | 0.07 | 91 | 1015.2 |
| 20260902001004 | 74 | 0 | 0.0 | 0.0 | 0.00 | 0.08 | 0.07 | 91 | 1014.9 |
| 20260902000005 | 74 | 0 | 0.0 | 0.0 | 0.00 | 0.08 | 0.07 | 90 | 1014.9 |
| 20260901235005 | 74 | 0 | 0.0 | 0.0 | 0.00 | 0.08 | 0.07 | 89 | 1014.9 |
| 20260901234005 | 75 | 0 | 0.0 | 0.0 | 0.00 | 0.08 | 0.07 | 87 | 1014.9 |
| 20260901233005 | 76 | 0 | 0.0 | 0.0 | 0.00 | 0.08 | 0.07 | 86 | 1015.1 |
| 20260901232004 | 76 | 0 | 0.0 | 0.0 | 0.00 | 0.08 | 0.07 | 84 | 1015.0 |
| 20260901231214 | 77 | 45 | 0.0 | 3.0 | 0.00 | 0.08 | 0.07 | 83 | 1015.0 |
| 20260901230004 | 78 | 16 | 0.0 | 4.0 | 0.00 | 0.09 | 0.07 | 82 | 1015.0 |
| 20260901225005 | 78 | 21 | 2.0 | 5.0 | 0.00 | 0.09 | 0.07 | 82 | 1015.1 |
| 20260901224004 | 78 | 24 | 1.0 | 5.0 | 0.00 | 0.09 | 0.07 | 81 | 1015.3 |
| 20260901223004 | 78 | 33 | 1.0 | 3.0 | 0.00 | 0.11 | 0.07 | 82 | 1015.2 |
| 20260901222005 | 78 | 25 | 2.0 | 5.0 | 0.00 | 0.11 | 0.07 | 81 | 1015.1 |
| 20260901221214 | 78 | 26 | 1.0 | 5.0 | 0.00 | 0.11 | 0.07 | 80 | 1015.2 |
| 20260901220004 | 79 | 352 | 2.0 | 5.0 | 0.00 | 0.11 | 0.07 | 79 | 1015.0 |
| 20260901215214 | 79 | 8 | 1.0 | 5.0 | 0.00 | 0.11 | 0.07 | 78 | 1014.8 |
| 20260901214003 | 80 | 25 | 1.0 | 4.0 | 0.00 | 0.11 | 0.07 | 76 | 1014.7 |
| 20260901213004 | 81 | 343 | 2.0 | 6.0 | 0.00 | 0.11 | 0.07 | 76 | 1014.8 |
| 20260901212007 | 80 | 266 | 2.0 | 5.0 | 0.00 | 0.12 | 0.07 | 79 | 1014.8 |
| 20260901211005 | 79 | 317 | 1.0 | 4.0 | 0.00 | 0.12 | 0.07 | 79 | 1014.8 |
| 20260901210005 | 79 | 298 | 1.0 | 4.0 | 0.00 | 0.12 | 0.07 | 79 | 1014.9 |
| 20260901205005 | 79 | 354 | 0.0 | 2.0 | 0.00 | 0.12 | 0.07 | 79 | 1015.0 |
| 20260901204003 | 79 | 325 | 1.0 | 3.0 | 0.00 | 0.12 | 0.07 | 81 | 1015.0 |
| 20260901203003 | 79 | 326 | 0.0 | 2.0 | 0.00 | 0.12 | 0.07 | 81 | 1015.0 |
| 20260901202213 | 79 | 225 | 0.0 | 2.0 | 0.00 | 0.12 | 0.07 | 81 | 1015.0 |
| 20260901201006 | 79 | 225 | 0.0 | 2.0 | 0.00 | 0.12 | 0.07 | 81 | 1014.9 |
| 20260901200005 | 78 | 148 | 0.0 | 3.0 | 0.00 | 0.12 | 0.07 | 82 | 1014.8 |
| 20260901195003 | 78 | 135 | 1.0 | 3.0 | 0.00 | 0.12 | 0.07 | 83 | 1014.8 |
| 20260901194003 | 78 | 128 | 0.0 | 2.0 | 0.00 | 0.12 | 0.07 | 83 | 1014.9 |
| 20260901193003 | 77 | 52 | 1.0 | 4.0 | 0.00 | 0.12 | 0.07 | 84 | 1014.9 |
| 20260901192003 | 77 | 16 | 1.0 | 4.0 | 0.00 | 0.12 | 0.07 | 86 | 1014.8 |
| 20260901191003 | 76 | 34 | 1.0 | 4.0 | 0.00 | 0.12 | 0.07 | 88 | 1015.0 |
| 20260901190004 | 76 | 33 | 1.0 | 3.0 | 0.00 | 0.12 | 0.07 | 88 | 1014.9 |
| 20260901185003 | 76 | 19 | 3.0 | 8.0 | 0.00 | 0.12 | 0.07 | 87 | 1014.7 |
| 20260901184003 | 77 | 45 | 2.0 | 5.0 | 0.00 | 0.12 | 0.07 | 85 | 1014.7 |
| 20260901183003 | 78 | 18 | 1.0 | 3.0 | 0.00 | 0.12 | 0.07 | 83 | 1014.7 |
| 20260901182212 | 78 | 20 | 1.0 | 3.0 | 0.00 | 0.12 | 0.07 | 82 | 1014.7 |
| 20260901181003 | 78 | 33 | 0.0 | 3.0 | 0.00 | 0.12 | 0.07 | 81 | 1014.4 |
| 20260901180004 | 79 | 14 | 1.0 | 6.0 | 0.00 | 0.12 | 0.07 | 81 | 1014.3 |
| 20260901175004 | 78 | 311 | 1.0 | 4.0 | 0.00 | 0.12 | 0.07 | 83 | 1014.2 |
| 20260901174006 | 78 | 20 | 1.0 | 3.0 | 0.00 | 0.12 | 0.07 | 85 | 1014.1 |
| 20260901173004 | 77 | 2 | 1.0 | 3.0 | 0.00 | 0.12 | 0.07 | 88 | 1014.2 |
| 20260901172006 | 76 | 14 | 1.0 | 3.0 | 0.00 | 0.12 | 0.07 | 88 | 1014.3 |